When you browse on this site, cookies collect data to enhance your experience and personalize the content and advertising you see.
Visit our Privacy Policy to learn more. By continuing to use the site, you agree to this use of cookies and data.
  • In Romania
  • List of Countries
  • For 7 days
  • Water Temperature
  • Satellite Maps
  • Weather Map
  • Weather Widgets
  • user-avatar
    Login

    Hourly Weather Malonakaryakovo

    Today, 22 July, Monday

    Time Temperature Precipitation Wind Pressure Humidity
    00:00 +16°C° 0 mm 2 mps 742 mmHg 93%
    01:00 +15°C° 0 mm 2 mps 742 mmHg 94%
    02:00 +15°C° 0 mm 2 mps 742 mmHg 94%
    03:00 +15°C° 0 mm 2 mps 741 mmHg 95%
    04:00 +14°C° 0 mm 2 mps 741 mmHg 96%
    05:00 +15°C° 0 mm 2 mps 742 mmHg 95%
    06:00 +16°C° 0 mm 3 mps 742 mmHg 94%
    07:00 +17°C° 0 mm 3 mps 742 mmHg 93%
    08:00 +18°C° 0.1 mm 3 mps 742 mmHg 89%
    09:00 +19°C° 0.1 mm 3 mps 742 mmHg 85%
    10:00 +20°C° 0 mm 3 mps 741 mmHg 81%
    11:00 +20°C° 0.5 mm 3 mps 741 mmHg 80%
    12:00 +21°C° 0.5 mm 4 mps 741 mmHg 78%
    13:00 +21°C° 0.5 mm 4 mps 741 mmHg 77%
    14:00 +21°C° 0.4 mm 4 mps 741 mmHg 76%
    15:00 +21°C° 0.4 mm 4 mps 741 mmHg 76%
    16:00 +22°C° 0.4 mm 3 mps 740 mmHg 76%
    17:00 +21°C° 0.2 mm 3 mps 740 mmHg 79%
    18:00 +20°C° 0.2 mm 3 mps 740 mmHg 82%
    19:00 +20°C° 0.2 mm 2 mps 740 mmHg 85%
    20:00 +19°C° 0.1 mm 2 mps 740 mmHg 88%
    21:00 +17°C° 0.1 mm 2 mps 740 mmHg 91%
    22:00 +16°C° 0.1 mm 2 mps 740 mmHg 94%
    23:00 +15°C° 0 mm 2 mps 740 mmHg 94%

    Tomorrow, 23 July, Tuesday

    Time Temperature Precipitation Wind Pressure Humidity
    00:00 +15°C° 0 mm 2 mps 739 mmHg 95%
    01:00 +14°C° 0 mm 2 mps 739 mmHg 96%
    02:00 +14°C° 0 mm 2 mps 739 mmHg 96%
    03:00 +14°C° 0 mm 2 mps 739 mmHg 97%
    04:00 +13°C° 0 mm 2 mps 740 mmHg 97%
    05:00 +14°C° 0 mm 2 mps 740 mmHg 96%
    06:00 +15°C° 0 mm 2 mps 740 mmHg 96%
    07:00 +16°C° 0 mm 2 mps 740 mmHg 95%
    08:00 +17°C° 0 mm 2 mps 740 mmHg 92%
    09:00 +18°C° 0 mm 3 mps 740 mmHg 89%
    10:00 +18°C° 0 mm 3 mps 740 mmHg 86%
    11:00 +19°C° 0.5 mm 3 mps 740 mmHg 84%
    12:00 +20°C° 0.5 mm 3 mps 740 mmHg 81%
    13:00 +21°C° 0.5 mm 4 mps 740 mmHg 78%
    14:00 +21°C° 0.5 mm 4 mps 740 mmHg 78%
    15:00 +21°C° 0.5 mm 4 mps 740 mmHg 77%
    16:00 +22°C° 0.5 mm 3 mps 741 mmHg 77%
    17:00 +21°C° 0.3 mm 3 mps 741 mmHg 81%
    18:00 +20°C° 0.3 mm 3 mps 741 mmHg 85%
    19:00 +20°C° 0.3 mm 3 mps 741 mmHg 89%
    20:00 +19°C° 0.3 mm 3 mps 741 mmHg 91%
    21:00 +17°C° 0.3 mm 2 mps 741 mmHg 93%
    22:00 +16°C° 0.3 mm 2 mps 741 mmHg 95%
    23:00 +16°C° 0 mm 2 mps 741 mmHg 95%

    Day after tomorrow, 24 July, Wednesday

    Time Temperature Precipitation Wind Pressure Humidity
    00:00 +15°C° 0 mm 2 mps 742 mmHg 96%
    01:00 +15°C° 0 mm 2 mps 742 mmHg 96%
    02:00 +15°C° 0 mm 1 mps 742 mmHg 96%
    03:00 +14°C° 0 mm 1 mps 742 mmHg 96%
    04:00 +14°C° 0 mm 1 mps 742 mmHg 96%
    05:00 +15°C° 0 mm 1 mps 743 mmHg 95%
    06:00 +16°C° 0 mm 2 mps 743 mmHg 94%
    07:00 +17°C° 0 mm 2 mps 743 mmHg 93%
    08:00 +18°C° 0.1 mm 2 mps 743 mmHg 89%
    09:00 +19°C° 0.1 mm 2 mps 743 mmHg 86%
    10:00 +20°C° 0.1 mm 3 mps 743 mmHg 83%
    11:00 +21°C° 0.3 mm 3 mps 744 mmHg 81%
    12:00 +22°C° 0.3 mm 3 mps 744 mmHg 78%
    13:00 +23°C° 0.3 mm 4 mps 744 mmHg 76%
    14:00 +23°C° 0.5 mm 4 mps 744 mmHg 77%
    15:00 +24°C° 0.5 mm 3 mps 744 mmHg 77%
    16:00 +24°C° 0.5 mm 3 mps 744 mmHg 78%
    17:00 +24°C° 0.1 mm 3 mps 744 mmHg 80%
    18:00 +23°C° 0.1 mm 2 mps 744 mmHg 81%
    19:00 +23°C° 0.1 mm 2 mps 744 mmHg 83%
    20:00 +20°C° 0 mm 2 mps 744 mmHg 84%
    21:00 +19°C° 0 mm 2 mps 745 mmHg 86%
    22:00 +18°C° 0 mm 2 mps 745 mmHg 88%
    23:00 +17°C° 0 mm 2 mps 745 mmHg 88%

    25 July, Thursday

    Time Temperature Precipitation Wind Pressure Humidity
    00:00 +18°C° 0 mm 1 mps 745 mmHg 88%
    01:00 +18°C° 0 mm 1 mps 745 mmHg 88%
    02:00 +16°C° 0 mm 1 mps 745 mmHg 88%
    03:00 +16°C° 0 mm 1 mps 745 mmHg 88%
    04:00 +16°C° 0 mm 1 mps 745 mmHg 87%
    05:00 +18°C° 0 mm 1 mps 746 mmHg 85%
    06:00 +19°C° 0 mm 1 mps 746 mmHg 83%
    07:00 +21°C° 0 mm 1 mps 746 mmHg 81%
    08:00 +22°C° 0 mm 1 mps 746 mmHg 75%
    09:00 +24°C° 0 mm 1 mps 746 mmHg 69%
    10:00 +25°C° 0 mm 1 mps 746 mmHg 64%
    11:00 +26°C° 0 mm 1 mps 746 mmHg 61%
    12:00 +27°C° 0 mm 2 mps 746 mmHg 57%
    13:00 +27°C° 0 mm 2 mps 746 mmHg 54%
    14:00 +27°C° 0 mm 2 mps 746 mmHg 56%
    15:00 +27°C° 0 mm 2 mps 746 mmHg 58%
    16:00 +27°C° 0 mm 2 mps 746 mmHg 59%
    17:00 +26°C° 0 mm 2 mps 746 mmHg 64%
    18:00 +25°C° 0 mm 2 mps 746 mmHg 68%
    19:00 +24°C° 0 mm 2 mps 746 mmHg 73%
    20:00 +23°C° 0 mm 2 mps 746 mmHg 75%
    21:00 +20°C° 0 mm 2 mps 746 mmHg 76%
    22:00 +19°C° 0 mm 2 mps 746 mmHg 77%
    23:00 +18°C° 0 mm 2 mps 746 mmHg 80%

    26 July, Friday

    Time Temperature Precipitation Wind Pressure Humidity
    00:00 +18°C° 0 mm 2 mps 746 mmHg 82%
    01:00 +18°C° 0 mm 1 mps 746 mmHg 84%
    02:00 +18°C° 0 mm 1 mps 746 mmHg 82%
    03:00 +18°C° 0 mm 1 mps 746 mmHg 79%
    04:00 +16°C° 0 mm 1 mps 746 mmHg 77%
    05:00 +18°C° 0 mm 1 mps 746 mmHg 75%
    06:00 +20°C° 0 mm 1 mps 746 mmHg 73%
    07:00 +21°C° 0 mm 1 mps 746 mmHg 72%
    08:00 +22°C° 0 mm 1 mps 746 mmHg 67%
    09:00 +24°C° 0 mm 1 mps 746 mmHg 63%
    10:00 +25°C° 0 mm 1 mps 746 mmHg 58%
    11:00 +26°C° 0 mm 1 mps 746 mmHg 56%
    12:00 +27°C° 0 mm 1 mps 745 mmHg 54%
    13:00 +28°C° 0 mm 1 mps 745 mmHg 52%
    14:00 +28°C° 0 mm 1 mps 745 mmHg 53%
    15:00 +27°C° 0 mm 2 mps 745 mmHg 54%
    16:00 +27°C° 0 mm 2 mps 744 mmHg 55%
    17:00 +26°C° 0 mm 2 mps 744 mmHg 62%
    18:00 +25°C° 0 mm 2 mps 744 mmHg 69%
    19:00 +24°C° 0 mm 2 mps 744 mmHg 75%
    20:00 +21°C° 0 mm 2 mps 744 mmHg 78%
    21:00 +21°C° 0 mm 1 mps 743 mmHg 80%
    22:00 +19°C° 0 mm 1 mps 743 mmHg 82%
    23:00 +19°C° 0 mm 1 mps 743 mmHg 83%

    27 July, Saturday

    Time Temperature Precipitation Wind Pressure Humidity
    00:00 +18°C° 0 mm 1 mps 743 mmHg 84%
    01:00 +16°C° 0 mm 0 mps 743 mmHg 85%
    02:00 +16°C° 0 mm 0 mps 743 mmHg 86%
    03:00 +15°C° 0 mm 0 mps 743 mmHg 86%
    04:00 +15°C° 0 mm 0 mps 742 mmHg 87%
    05:00 +16°C° 0 mm 0 mps 742 mmHg 84%
    06:00 +18°C° 0 mm 0 mps 742 mmHg 82%
    07:00 +19°C° 0 mm 0 mps 742 mmHg 79%
    08:00 +21°C° 0 mm 0 mps 742 mmHg 75%
    09:00 +24°C° 0 mm 1 mps 742 mmHg 70%
    10:00 +25°C° 0 mm 1 mps 741 mmHg 66%
    11:00 +26°C° 0.1 mm 2 mps 741 mmHg 63%
    12:00 +26°C° 0.1 mm 2 mps 741 mmHg 61%
    13:00 +27°C° 0.1 mm 3 mps 740 mmHg 58%
    14:00 +27°C° 0.2 mm 3 mps 740 mmHg 60%
    15:00 +27°C° 0.2 mm 3 mps 739 mmHg 62%
    16:00 +26°C° 0.2 mm 3 mps 739 mmHg 64%
    17:00 +26°C° 0.3 mm 3 mps 738 mmHg 69%
    18:00 +25°C° 0.3 mm 2 mps 738 mmHg 75%
    19:00 +24°C° 0.3 mm 2 mps 738 mmHg 80%
    20:00 +21°C° 0.1 mm 2 mps 737 mmHg 82%
    21:00 +20°C° 0.1 mm 2 mps 737 mmHg 84%
    22:00 +19°C° 0.1 mm 2 mps 736 mmHg 86%
    23:00 +18°C° 0 mm 2 mps 736 mmHg 87%
    Show more